Flag for U.S.A. Weather past 2 weeks in Charlotte, North Carolina, U.S.A.

Now
46 °F

Passing clouds.


Feels Like: 45 °F
Forecast: 44 / 72 °F
Wind: 3 mph from Northwest

Location: Charlotte / Douglas International Airport

Current Time: Oct 25, 2014 at 9:47:43 AM

Latest Report: Oct 25, 2014 at 8:52 AM


Visibility: 10 mi

Pressure: 30.05 "Hg

Humidity: 86%

Dew point: 42 °F

Location of CharlotteLocation

Historic Weather in Charlotte — Graph

°F

Charlotte temperature yesterday

Maximum temperature yesterday: 68 °F (at 2:52 PM)
Minimum temperature yesterday: 41 °F (at 7:52 AM)
Average temperature yesterday: 54 °F

Past Weeks' High & Low Weather Summary

 TemperatureHumidityPressure
High86 °F (Oct 11, 2:52 PM)97% (Oct 17, 3:52 AM)30.24 "Hg (Oct 17, 3:52 AM)
Low39 °F (Oct 25, 6:52 AM)31% (Oct 21, 3:52 PM)29.00 "Hg (Oct 17, 4:55 AM)
Average62 °F70%29.99 "Hg
* Reported Oct 10 7:52 AM — Oct 25 7:52 AM, Charlotte, Weather by CustomWeather, © 2014

Note: Actual official high and low records may vary slightly from our data, if they occured in-between our weather recording intervals... More about our weather records

Advertising

Charlotte weather history for previous 24 hours

 ConditionsComfort  
Time TempWeatherWind HumidityBarometerVisibility
7:52 AM
Oct 25
40 °FClear.No wind89%30.03 "Hg10 mi
6:52 AM39 °FClear.3 mph93%30.03 "Hg10 mi
5:52 AM43 °FClear.7 mph86%30.01 "Hg10 mi
4:52 AM45 °FClear.6 mph82%30.00 "Hg10 mi
3:52 AM47 °FClear.7 mph83%30.00 "Hg10 mi
2:52 AM44 °FClear.7 mph93%30.00 "Hg10 mi
1:52 AM42 °FClear.3 mph92%30.00 "Hg10 mi
12:52 AM40 °FClear.No wind93%30.00 "Hg9 mi
11:52 PM
Oct 24
50 °FClear.No wind83%30.01 "Hg10 mi
10:52 PM48 °FClear.No wind86%30.02 "Hg10 mi
9:52 PM53 °FClear.5 mph77%30.03 "Hg10 mi
8:52 PM54 °FPassing clouds.3 mph69%30.01 "Hg10 mi
7:52 PM57 °FPassing clouds.6 mph62%30.00 "Hg10 mi
6:52 PM61 °FPartly sunny.3 mph58%29.98 "Hg10 mi
5:52 PM63 °FPartly sunny.3 mph50%29.98 "Hg10 mi
4:52 PM66 °FPartly sunny.5 mph39%30.00 "Hg10 mi
3:52 PM67 °FPartly sunny.5 mph36%30.00 "Hg10 mi
2:52 PM68 °FPartly sunny.6 mph35%30.01 "Hg10 mi
1:52 PM67 °FOvercast.5 mph37%30.01 "Hg10 mi
12:52 PM66 °FPartly sunny.5 mph39%30.04 "Hg10 mi
11:52 AM64 °FBroken clouds.3 mph41%30.09 "Hg10 mi
10:52 AM61 °FBroken clouds.8 mph48%30.09 "Hg10 mi
9:52 AM53 °FPartly sunny.No wind72%30.09 "Hg10 mi
Weather by CustomWeather, © 2014

See weather overviewHow to use our weather pages